Location: Bailen
(14.1842°N, 120.7958°E)
Time: 23:51:32
(UTC+00:00)

Cosmos 1500 Rocket - Visible Passes

Search period start: 18 April 2026 00:00
Search period end: 28 April 2026 00:00
Orbit: 596 x 623 km, 82.5° (Epoch: 18 April)

Date Brightness Start Highest point End Pass type
(mag) Time Alt. Az. Time Alt. Az. Time Alt. Az.
18 Apr 4.1 20:45:26 10° N 20:49:47 63° E 20:54:09 10° SSE visible
19 Apr 3.5 20:59:45 10° NNW 21:04:06 62° W 21:08:27 10° S visible
20 Apr 6.9 19:39:32 10° ENE 19:40:51 11° E 19:42:12 10° E visible
20 Apr 4.4 21:14:32 10° NNW 21:18:22 30° W 21:22:13 10° SSW visible
21 Apr 6.0 19:51:48 10° NNE 19:55:15 22° E 19:58:43 10° SE visible
22 Apr 4.7 20:05:24 10° NNE 20:09:37 45° E 20:13:50 10° SSE visible
23 Apr 3.4 20:19:30 10° N 20:23:55 86° W 20:28:21 10° S visible
24 Apr 3.9 20:34:05 10° NNW 20:38:13 40° W 20:42:21 10° SSW visible
25 Apr 6.3 19:12:12 10° NE 19:15:02 17° E 19:17:53 10° ESE visible
25 Apr 4.8 20:49:12 10° NW 20:52:28 20° W 20:55:43 10° SW visible
26 Apr 5.2 19:25:26 10° NNE 19:29:25 33° E 19:30:52 26° ESE visible
27 Apr 3.9 19:39:21 10° N 19:43:17 63° NE 19:43:17 63° NE visible
